This is the latest recevied weather packets stored in our database for station/object OK1LPD-6. If no packets are shown the sender has not sent any weather packets the latest 10 day(s).
| Time | Temp. | Humidity | Pressure | Rain* | Wind** | Luminosity | Snow |
|---|---|---|---|---|---|---|---|
| 1777736731 | 28.33° C | 20% | 1018.6 hPa | 0 mm | - | - | - |
| 1777736121 | 28.33° C | 20% | 1018.9 hPa | 0 mm | - | - | - |
| 1777735522 | 28.89° C | 20% | 1019 hPa | 0 mm | - | - | - |
| 1777734934 | 27.78° C | 20% | 1018.9 hPa | 0 mm | - | - | - |
| 1777734321 | 27.22° C | 21% | 1019.3 hPa | 0 mm | - | - | - |
| 1777733721 | 28.33° C | 20% | 1019.3 hPa | 0 mm | - | - | - |
| 1777733132 | 27.22° C | 21% | 1019.4 hPa | 0 mm | - | - | - |
| 1777732522 | 27.22° C | 21% | 1019.6 hPa | 0 mm | - | - | - |
| 1777731921 | 28.33° C | 20% | 1019.8 hPa | 0 mm | - | - | - |
| 1777731333 | 27.78° C | 20% | 1019.9 hPa | 0 mm | - | - | - |
| 1777730722 | 26.67° C | 21% | 1019.9 hPa | 0 mm | - | - | - |
| 1777730122 | 27.22° C | 21% | 1020.2 hPa | 0 mm | - | - | - |
| 1777729533 | 26.67° C | 21% | 1020.1 hPa | 0 mm | - | - | - |
| 1777728922 | 26.11° C | 21% | 1020.3 hPa | 0 mm | - | - | - |
| 1777728322 | 26.67° C | 21% | 1020.3 hPa | 0 mm | - | - | - |
| 1777727736 | 27.22° C | 21% | 1020.4 hPa | 0 mm | - | - | - |
| 1777727122 | 26.67° C | 21% | 1020.8 hPa | 0 mm | - | - | - |
| 1777726522 | 26.67° C | 21% | 1020.9 hPa | 0 mm | - | - | - |
| 1777725937 | 25° C | 22% | 1021 hPa | 0 mm | - | - | - |
| 1777725323 | 25° C | 21% | 1020.9 hPa | 0 mm | - | - | - |
| 1777724722 | 25° C | 21% | 1021.3 hPa | 0 mm | - | - | - |
| 1777724142 | 25.56° C | 21% | 1021.4 hPa | 0 mm | - | - | - |
| 1777723523 | 25° C | 21% | 1021.4 hPa | 0 mm | - | - | - |
| 1777722923 | 25° C | 21% | 1021.6 hPa | 0 mm | - | - | - |
| 1777722341 | 25° C | 21% | 1021.8 hPa | 0 mm | - | - | - |
* Rain latest hour (hover to see other rain measurements)
** Current wind speed in m/s (hover to see current wind gust speed)